SCP
0 0 0 0 0 0 0 0 0 0 0 0 0 0 0 0 0 0 0 0 0 0 0 0 0 0 0 0 0 0 0 0 0 0 0 0 0 0 0 0 0 0 0
0 0 0 0 0 0 0 0 0 0 0 0 0 0 0 0 0 0 0 0 0 0 0 0 0 0 0 0 0 0 0 0 0 0 0 0 0 0 0 0 0 0 0
0 0 0 0 0 0 0 0 0 0 0 0 0 0 0 0 0 0 0 0 0 0 0 0 0 0 0 0 0 0 0 0 0 0 0 0 0 0 0 0 0 0 0
0 0 0 0 0 0 0 0 0 0 0 0 0 0 0 0 0 0 0 0 0 0 0 0 0 0 0 0 0 0 0 0 0 0 0 0 0 0 0 0 0 0 0
0 0 0 0 0 0 0 0 0 0 0 0 0 0 0 0 0 0 0 0 0 0 0 0 0 0 0 0 0 0 0 0 0 0 0 0 0 0 0 0 0 0 0
0 0 0 0 0 0 0 0 0 0 0 0 0 0 0 0 0 0 0 0 0 0 0 0 0 0 0 0 0 0 0 0 0 0 0 0 0 0 0 0 0 0 0
0 0 0 0 0 0 0 0 0 0 0 0 0 0 0 0 0 0 0 0 0 0 0 0 0 0 0 0 0 0 0 0 0 0 0 0 0 0 0 0 0 0 0
0 0 0 0 0 0 0 0 0 0 0 0 0 0 0 0 0 0 0 0 0 0 0 0 0 0 0 0 0 0 0 0 0 0 0 0 0 0 0 0 0 0 0
0 0 0 0 0 0 0 0 0 0 0 0 0 0 0 0 0 0 0 0 0 0 0 0 0 0 0 0 0 0 0 0 0 0 0 0 0 0 0 0 0 0 0
0 0 0 0 0 0 0 0 0 0 0 0 0 0 0 0 0 0 0 0 0 0 0 0 0 0 0 0 0 0 0 0 0 0 0 0 0 0 0 0 0 0 0
0 0 0 0 0 0 0 0 0 0 0 0 0 0 0 0 0 0 0 0 0 0 0 0 0 0 0 0 0 0 0 0 0 0 0 0 0 0 0 0 0 0 0
0 0 0 0 0 0 0 0 0 0 0 0 0 0 0 0 0 0 0 0 0 0 0 0 0 0 0 0 0 0 0 0 0 0 0 0 0 0 0 0 0 0 0
0 0 0 0 0 0 0 0 0 0 0 0 0 0 0 0 0 0 0 0 0 0 0 0 0 0 0 0 0 0 0 0 0 0 0 0 0 0 0 0 0 0 0
0 0 0 0 0 0 0 0 0 0 0 0 0 0 0 0 0 0 0 0 0 0 0 0 0 0 0 0 0 0 0 0 0 0 0 0 0 0 0 0 0 0 0
0 0 0 0 0 0 0 0 0 0 0 0 0 0 0 0 0 0 0 0 0 0 0 0 0 0 0 0 0 0 0 0 0 0 0 0 0 0 0 0 0 0 0
0 0 0 0 0 0 0 0 0 0 0 0 0 0 0 0 0 0 0 0 0 0 0 0 0 0 0 0 0 0 0 0 0 0 0 0 0 0 0 0 0 0 0
0 0 0 0 0 0 0 0 0 0 0 0 0 0 0 0 0 0 0 0 0 0 0 0 0 0 0 0 0 0 0 0 0 0 0 0 0 0 0 0 0 0 0
0 0 0 0 0 0 0 0 0 0 0 0 0 0 0 0 0 0 0 0 0 0 0 0 0 0 0 0 0 0 0 0 0 0 0 0 0 0 0 0 0 0 0
0 0 0 0 0 0 0 0 0 0 0 0 0 0 0 0 0 0 0 0 0 0 0 0 0 0 0 0 0 0 0 0 0 0 0 0 0 0 0 0 0 0 0
0 0 0 0 0 0 0 0 0 0 0 0 0 0 0 0 0 0 0 0 0 0 0 0 0 0 0 0 0 0 0 0 0 0 0 0 0 0 0 0 0 0 0
0 0 0 0 0 0 0 0 0 0 0 0 0 0 0 0 0 0 0 0 0 0 0 0 0 0 0 0 0 0 0 0 0 0 0 0 0 0 0 0 0 0 0
0 0 0 0 0 0 0 0 0 0 0 0 0 0 0 0 0 0 0 0 0 0 0 0 0 0 0 0 0 0 0 0 0 0 0 0 0 0 0 0 0 0 0
0 0 0 0 0 0 0 0 0 0 0 0 0 0 0 0 0 0 0 0 0 0 0 0 0 0 0 0 0 0 0 0 0 0 0 0 0 0 0 0 0 0 0
0 0 0 0 0 0 0 0 0 0 0 0 0 0 0 0 0 0 0 0 0 0 0 0 0 0 0 0 0 0 0 0 0 0 0 0 0 0 0 0 0 0 0
0 0 0 0 0 0 0 0 0 0 0 0 0 0 0 0 0 0 0 0 0 0 0 0 0 0 0 0 0 0 0 0 0 0 0 0 0 0 0 0 0 0 0
0 0 0 0 0 0 0 0 0 0 0 0 0 0 0 0 0 0 0 0 0 0 0 0 0 0 0 0 0 0 0 0 0 0 0 0 0 0 0 0 0 0 0
Wind_Speed
16 17 18 18 19 19 18 19 18 17 17 17 16 16 16 16 16 15 15 14 16 15 14 15 16 14 11 10 10 10 10 11 14 11 6 4 7 8 7 8 8 8 8
15 15 17 17 17 18 19 19 18 17 16 16 16 16 16 16 16 16 16 16 16 16 16 15 16 12 15 12 10 12 11 11 11 13 7 4 6 7 6 6 6 5 6
13 14 15 16 17 18 18 17 17 16 16 15 15 16 16 16 16 16 16 16 16 16 15 16 16 15 15 12 12 11 9 8 9 10 8 4 3 3 3 3 4 5 6
11 13 14 15 15 16 16 15 15 15 15 15 15 15 15 14 15 14 14 15 15 14 14 14 14 14 14 13 11 11 9 9 8 8 7 3 3 3 3 4 5 5 5
10 12 13 12 12 13 13 13 13 13 13 12 12 12 12 12 11 12 13 13 13 13 12 12 12 12 13 11 9 9 9 8 7 6 6 3 4 4 5 5 5 4 4
10 11 11 10 10 11 11 10 10 11 11 10 11 11 11 9 11 14 13 11 11 12 11 10 10 10 12 13 13 13 11 10 8 7 6 6 6 6 5 5 5 4 4
9 9 8 9 9 10 9 9 10 11 10 10 11 11 11 11 13 14 15 11 11 10 10 9 7 6 9 8 9 11 10 11 11 8 7 7 6 7 7 7 6 5 4
7 8 7 8 9 8 8 10 10 8 9 9 10 10 9 9 12 13 14 12 10 9 9 8 8 7 7 7 6 6 5 5 6 6 6 5 4 5 7 6 6 4 3
8 8 7 8 8 8 9 10 9 8 8 8 6 8 8 8 10 11 11 7 7 7 6 6 7 7 8 10 7 6 5 3 2 4 4 3 5 7 8 6 6 4 3
9 8 6 6 7 9 9 8 6 6 7 6 5 5 6 6 7 9 10 5 6 5 4 4 5 7 8 10 7 7 6 5 4 3 3 4 4 6 8 6 6 5 3
5 4 5 6 6 7 6 5 5 5 5 5 5 4 4 4 5 8 9 6 6 5 4 4 4 7 8 8 7 5 7 6 5 5 4 4 3 3 3 3 2 3 3
4 4 5 4 4 4 5 5 5 6 6 6 5 4 3 3 4 6 9 9 7 5 5 4 4 8 8 7 6 6 8 7 4 4 4 3 3 3 3 3 3 3 3
3 4 3 3 3 4 5 6 6 6 6 6 6 6 4 3 3 5 6 8 8 5 4 6 7 8 7 5 6 8 6 4 4 4 4 3 3 3 4 4 4 4 4
4 4 3 3 3 3 4 4 5 6 6 6 6 6 5 4 4 4 4 4 5 5 4 5 8 8 6 6 5 5 3 3 3 4 3 3 3 4 3 3 3 3 2
3 3 3 3 3 3 3 3 4 3 4 6 5 5 6 5 6 7 6 5 5 5 6 4 4 4 4 4 4 3 3 3 3 3 4 4 4 3 3 2 2 3 3
3 2 2 3 3 3 3 2 3 3 4 5 5 5 3 4 8 10 9 8 9 11 6 5 5 5 5 5 4 4 3 3 3 3 3 4 4 4 3 3 2 3 3
3 2 2 2 2 3 3 4 3 3 5 5 5 6 6 7 8 9 10 10 10 10 5 4 4 4 4 4 4 3 3 3 3 3 3 3 3 3 3 3 3 3 3
2 2 2 2 2 2 3 3 3 4 3 2 3 5 6 7 8 8 10 9 6 5 3 4 4 4 4 4 3 3 3 3 3 3 3 3 3 3 4 4 4 4 3
2 1 1 1 1 2 2 3 3 3 3 3 2 3 4 6 7 7 7 3 4 3 3 3 3 3 3 3 3 3 3 3 3 3 3 3 3 3 3 3 3 4 4
2 2 1 0 1 1 2 3 3 3 3 3 3 2 2 3 3 3 2 2 3 3 3 3 2 3 3 3 3 3 3 3 3 3 3 3 3 3 3 4 4 4 4
3 2 2 1 1 1 2 2 2 3 3 3 2 2 3 3 3 3 3 2 2 2 2 2 2 2 2 2 2 3 3 3 3 3 2 2 2 2 2 3 3 3 3
3 2 2 2 2 2 2 2 2 3 3 3 2 3 5 3 3 3 3 2 2 2 2 2 2 2 2 2 2 2 3 3 2 2 2 2 2 2 2 3 3 3 3
3 3 2 2 2 3 3 3 3 3 3 3 3 3 3 3 2 3 2 2 2 2 2 2 2 2 2 1 1 1 2 2 2 2 2 2 2 3 3 3 4 3 3
3 3 2 2 3 3 3 3 2 2 2 3 3 2 2 2 2 3 2 2 2 2 2 2 2 2 2 1 1 1 1 0 1 1 3 3 3 3 3 3 3 4 3
3 3 3 2 2 2 2 2 2 2 2 2 2 2 2 2 2 2 2 2 2 2 2 2 1 1 1 1 1 0 0 0 1 1 2 2 3 3 3 4 3 3 3
4 3 3 3 2 2 2 2 2 2 2 2 2 2 2 1 1 1 1 1 1 1 1 1 1 0 1 1 1 1 2 2 3 3 3 3 3 3 4 3 4 4 4
Wind_Direction
228 226 224 224 223 224 224 225 224 224 221 219 216 215 215 216 216 218 221 222 225 228 226 228 232 231 232 231 229 229 231 235 253 262 253 234 207 210 211 214 216 216 216
230 228 227 227 225 224 225 225 224 224 221 219 217 216 216 217 216 217 221 222 225 228 228 228 231 230 231 231 230 230 232 231 242 257 249 223 217 210 209 208 208 211 213
230 228 228 227 225 225 225 225 223 222 222 219 217 216 217 217 217 219 221 223 225 228 228 228 230 228 231 230 230 232 233 231 235 248 253 226 195 168 184 198 206 215 215
234 229 228 227 225 226 226 224 223 221 221 219 217 218 218 217 218 217 220 224 227 228 229 229 230 229 231 230 230 232 231 232 232 238 245 226 180 155 169 192 208 209 213
235 233 231 228 227 225 224 223 222 220 219 218 216 217 216 216 215 213 215 221 225 228 228 229 230 229 229 228 226 226 224 231 229 230 237 223 192 178 198 189 205 194 202
234 235 234 228 223 221 220 218 215 216 216 215 214 213 214 213 207 205 209 217 221 225 229 228 227 223 227 227 229 228 224 227 230 227 230 226 217 200 186 179 179 178 210
235 236 230 223 222 220 215 213 214 214 211 212 214 213 215 215 204 202 206 215 220 223 225 225 225 221 219 224 224 227 231 230 228 225 228 225 210 193 179 184 190 192 198
240 239 231 219 220 216 210 214 216 210 208 211 212 212 215 215 202 202 203 214 222 222 220 217 216 215 210 205 207 213 216 221 221 223 229 226 205 178 178 179 170 146 103
242 238 231 220 214 210 212 214 212 206 207 208 204 205 209 211 198 197 194 208 217 221 217 212 210 213 206 197 195 199 201 215 209 194 196 181 164 160 155 141 147 152 173
243 238 228 217 211 213 214 212 206 200 204 193 194 201 203 207 192 190 190 202 211 210 203 205 210 208 199 192 195 192 199 200 170 141 130 129 134 148 158 165 166 167 160
249 234 224 216 213 212 206 197 186 184 183 185 187 191 197 199 193 190 189 197 203 201 199 200 199 193 194 192 192 197 196 173 161 153 143 132 126 132 144 143 147 162 171
249 234 227 215 209 197 185 183 177 174 177 183 181 187 194 190 194 196 194 198 191 191 195 190 186 182 183 184 188 180 165 153 146 148 151 153 154 153 137 124 106 81 65
254 246 235 208 196 187 183 183 178 177 185 188 186 191 189 181 181 183 187 189 188 187 178 170 165 166 164 166 167 159 153 152 154 162 169 165 148 134 123 114 100 95 83
244 244 225 202 193 182 183 185 185 187 191 191 190 191 183 178 180 173 171 169 169 165 156 147 147 147 141 133 138 143 146 153 161 164 151 132 126 135 141 142 143 143 146
252 240 223 206 190 184 183 180 185 195 193 186 188 181 180 191 191 175 169 174 172 162 145 136 139 145 149 148 139 136 137 141 146 144 143 145 150 151 148 144 146 160 182
264 247 225 209 191 184 172 145 110 137 139 156 155 157 164 161 159 170 172 168 160 153 145 154 162 165 169 167 161 154 154 159 157 151 153 157 162 165 159 157 166 184 200
259 251 230 205 190 185 173 169 160 119 114 121 138 148 150 150 156 162 164 161 158 155 153 158 163 167 167 164 161 160 162 156 151 156 160 163 162 164 166 173 180 191 203
276 250 228 203 187 181 173 166 166 163 155 128 108 127 138 146 149 152 154 148 150 155 150 155 158 158 158 160 161 159 153 152 158 164 166 167 170 174 180 186 190 198 202
323 290 256 197 164 156 148 144 143 145 143 133 114 105 115 131 132 135 141 138 146 150 145 140 142 147 149 152 154 155 156 162 164 166 172 175 177 182 189 192 194 191 202
348 1 360 66 117 131 137 142 144 145 144 143 139 125 115 122 127 123 109 106 121 127 128 130 129 133 139 144 148 151 154 159 163 169 174 176 180 187 193 196 199 200 206
348 1 21 51 71 99 117 131 139 139 136 127 109 92 110 118 117 111 103 93 99 112 121 125 125 128 126 129 139 151 157 159 162 167 169 172 175 183 190 197 201 205 205
355 5 19 43 58 68 77 83 97 106 112 109 93 82 84 87 93 97 94 84 73 70 83 109 114 108 112 127 141 152 161 165 166 169 171 172 177 182 188 196 202 203 203
5 21 31 40 55 73 80 80 87 95 99 97 95 88 83 83 83 85 81 73 69 65 64 81 99 93 81 73 82 133 164 172 175 176 176 180 186 190 194 203 206 211 213
8 25 36 40 47 58 69 73 76 83 89 90 88 86 83 80 77 76 71 69 68 64 61 66 78 91 88 71 64 63 77 107 157 184 189 193 195 196 198 202 208 208 213
14 23 32 36 43 53 64 70 70 71 73 77 80 82 82 80 78 72 64 64 69 68 61 57 71 85 90 68 32 342 303 249 217 191 188 196 199 200 200 204 206 208 209
24 27 29 33 38 44 58 68 67 65 64 63 66 72 77 79 81 80 74 70 67 60 50 39 40 14 325 304 273 264 250 236 216 205 197 194 196 200 198 202 203 207 208